Le nostre stazioni meteo in Italia

Pubblicità
Il mio iltempo24.it
Bolzano, Italia (16020): Temperatura & dewpoint: 22.05.2018 09:00:00 - 28.05.2018 09:00:00 (CEST)Bolzano, Italia (16020): velocità del vento: 22.05.2018 09:00:00 - 28.05.2018 09:00:00 (CEST)Bolzano, Italia (16020): direzione del vento: 22.05.2018 09:00:00 - 28.05.2018 09:00:00 (CEST)Bolzano, Italia (16020): reduced air pressure: 22.05.2018 09:00:00 - 28.05.2018 09:00:00 (CEST)Bolzano, Italia (16020): visibility: 22.05.2018 09:00:00 - 28.05.2018 09:00:00 (CEST)Bolzano, Italia (16020): precipitazioni: 22.05.2018 09:00:00 - 28.05.2018 09:00:00 (CEST)
Data & Tempo tt [°C] td [°C] ff [km/h] ff [kn] dd ppp [hPa] vv [km] rr [mm]
28.05.2018 09:00:00 18,0 15,0 5 3 ESE - 10 -
28.05.2018 08:00:00 15,8 15,8 0 0 N 1021,9 10 -
28.05.2018 07:00:00 14,0 14,0 0 0 N - 10 -
28.05.2018 06:00:00 - - - - - - - -
28.05.2018 05:00:00 14,5 14,5 4 2 E 1021,3 - -
28.05.2018 04:00:00 - - - - - - - -
28.05.2018 03:00:00 - - - - - - - -
28.05.2018 02:00:00 15,8 15,8 2 1 ONO 1021,1 - -
28.05.2018 01:00:00 - - - - - - - -
28.05.2018 00:00:00 - - - - - - - -
27.05.2018 23:00:00 17,1 17,1 8 4 - 1022,1 9 -
27.05.2018 22:00:00 17,0 17,0 4 2 - - 8 -
27.05.2018 21:00:00 18,0 18,0 13 7 S - 2,0 -
27.05.2018 20:00:00 21,4 16,9 11 6 S 1017,6 10 -
27.05.2018 19:00:00 25,0 14,0 13 7 S - 10 -
27.05.2018 18:00:00 27,0 16,0 11 6 SSE - 10 -
27.05.2018 17:00:00 27,5 15,6 9 5 S 1014,9 10 -
27.05.2018 16:00:00 30,0 14,0 5 3 - - 10 -
27.05.2018 15:00:00 27,0 16,0 5 3 - - 10 -
27.05.2018 14:00:00 27,8 15,4 5 3 - 1016,7 10 0,0
27.05.2018 13:00:00 26,0 16,0 4 2 - - 9 -
27.05.2018 12:00:00 23,0 18,0 9 5 ONO - 9 -
27.05.2018 11:00:00 23,6 15,6 4 2 - 1019,6 9 -
27.05.2018 10:00:00 21,0 17,0 4 2 - - 9 -
27.05.2018 09:00:00 20,0 17,0 8 4 SE - 9 -
27.05.2018 08:00:00 20,2 15,6 4 2 - 1020,3 9 0,0
27.05.2018 07:00:00 20,0 16,0 0 0 N - 9 -
27.05.2018 06:00:00 - - - - - - - -
27.05.2018 05:00:00 18,4 16,1 2 1 S 1019,4 - -
27.05.2018 04:00:00 - - - - - - - -
27.05.2018 03:00:00 - - - - - - - -
27.05.2018 02:00:00 21,7 15,8 8 4 N 1019,1 - 0,0
27.05.2018 01:00:00 - - - - - - - -
27.05.2018 00:00:00 - - - - - - - -
26.05.2018 23:00:00 23,2 15,4 8 4 SSE 1019,2 10 -
26.05.2018 22:00:00 25,0 15,0 15 8 SSE - 10 -
26.05.2018 21:00:00 26,0 16,0 15 8 SSE - 10 -
26.05.2018 20:00:00 26,3 15,2 18 10 SSE 1016,1 10 0,0
26.05.2018 19:00:00 28,0 16,0 18 10 SSE - 10 -
26.05.2018 18:00:00 28,0 16,0 15 8 S - 10 -
26.05.2018 17:00:00 29,1 14,0 15 8 S 1015,1 10 -
26.05.2018 16:00:00 29,0 15,0 9 5 S - 10 -
26.05.2018 15:00:00 29,0 15,0 9 5 S - 10 -
26.05.2018 14:00:00 28,8 14,8 11 6 S 1016,7 9 0,0
26.05.2018 13:00:00 28,0 13,0 8 4 S - 10 -
26.05.2018 12:00:00 27,0 15,0 4 2 - - 10 -
26.05.2018 11:00:00 25,3 13,9 4 2 - 1018,8 10 -
26.05.2018 10:00:00 23,0 14,0 0 0 N - 10 -
26.05.2018 09:00:00 21,0 15,0 4 2 - - 10 -
26.05.2018 08:00:00 19,3 13,8 0 0 N 1020,4 10 0,0
26.05.2018 07:00:00 18,0 14,0 4 2 - - 10 -
26.05.2018 06:00:00 - - - - - - - -
26.05.2018 05:00:00 18,8 15,0 2 1 N 1019,1 - -
26.05.2018 04:00:00 - - - - - - - -
26.05.2018 03:00:00 - - - - - - - -
26.05.2018 02:00:00 20,0 13,9 8 4 NNO 1017,9 - 0,0
26.05.2018 01:00:00 - - - - - - - -
26.05.2018 00:00:00 - - - - - - - -
25.05.2018 23:00:00 20,5 14,4 2 1 - 1016,4 10 -
25.05.2018 22:00:00 24,0 14,0 8 4 SSE - 10 -
25.05.2018 21:00:00 24,0 14,0 9 5 S - 10 -
25.05.2018 20:00:00 25,4 12,5 13 7 S 1012,7 10 0,0
25.05.2018 19:00:00 28,0 14,0 15 8 S - 10 -
25.05.2018 18:00:00 30,0 12,0 13 7 S - 10 -
25.05.2018 17:00:00 29,4 10,1 9 5 S 1011,4 10 -
25.05.2018 16:00:00 28,0 11,0 9 5 SSE - 10 -
25.05.2018 15:00:00 30,0 11,0 9 5 - - 10 -
25.05.2018 14:00:00 29,5 11,2 4 2 - 1012,5 10 0,0
25.05.2018 13:00:00 27,0 13,0 0 0 N - 10 -
25.05.2018 12:00:00 25,0 12,0 4 2 - - 10 -
25.05.2018 11:00:00 23,3 11,2 4 2 - 1015,7 10 -
25.05.2018 10:00:00 22,0 12,0 5 3 - - 10 -
25.05.2018 09:00:00 20,0 13,0 4 2 - - 10 -
25.05.2018 08:00:00 15,7 14,0 4 2 NE 1018,3 10 0,0
25.05.2018 07:00:00 13,0 13,0 4 2 - - 10 -
25.05.2018 06:00:00 - - - - - - - -
25.05.2018 05:00:00 14,0 13,4 2 1 S 1018,3 - -
25.05.2018 04:00:00 - - - - - - - -
25.05.2018 03:00:00 - - - - - - - -
25.05.2018 02:00:00 15,5 14,6 4 2 ESE 1018,4 - 0,0
25.05.2018 01:00:00 - - - - - - - -
25.05.2018 00:00:00 - - - - - - - -
24.05.2018 23:00:00 17,3 16,1 0 0 N 1017,7 10 -
24.05.2018 22:00:00 17,0 16,0 4 2 - - 10 -
24.05.2018 21:00:00 19,0 16,0 4 2 - - 10 -
24.05.2018 20:00:00 20,7 16,9 0 0 N 1015,8 10 -
24.05.2018 19:00:00 21,0 16,0 0 0 N - 10 -
24.05.2018 18:00:00 24,0 16,0 5 3 SSO - 10 -
24.05.2018 17:00:00 24,4 14,6 0 0 N 1014,9 10 -
24.05.2018 16:00:00 24,0 15,0 5 3 O - 10 -
24.05.2018 15:00:00 24,0 15,0 0 0 N - 10 -
24.05.2018 14:00:00 22,0 14,8 9 5 S 1016,5 10 -
24.05.2018 13:00:00 21,0 16,0 5 3 - - 10 -
24.05.2018 12:00:00 20,0 16,0 0 0 N - 10 -
24.05.2018 11:00:00 19,3 15,2 0 0 N 1018,5 10 -
24.05.2018 10:00:00 17,0 16,0 0 0 N - 10 -
24.05.2018 09:00:00 16,0 15,0 4 2 - - 10 -
24.05.2018 08:00:00 15,9 15,9 0 0 N 1019,2 8 -
24.05.2018 07:00:00 15,0 15,0 0 0 N - 6 -
24.05.2018 06:00:00 - - - - - - - -
24.05.2018 05:00:00 15,5 15,5 2 1 N 1018,6 - -
24.05.2018 04:00:00 - - - - - - - -
24.05.2018 03:00:00 - - - - - - - -
24.05.2018 02:00:00 15,8 15,8 4 2 NO 1018,4 - 0,0
24.05.2018 01:00:00 - - - - - - - -
24.05.2018 00:00:00 - - - - - - - -
23.05.2018 23:00:00 16,2 16,0 2 1 - 1017,8 10 -
23.05.2018 22:00:00 17,0 17,0 0 0 N - 10 -
23.05.2018 21:00:00 19,0 17,0 2 1 O - 10 -
23.05.2018 20:00:00 19,6 15,7 2 1 SSE 1016,3 28 -
23.05.2018 19:00:00 20,0 15,0 4 2 - - 10 -
23.05.2018 18:00:00 19,0 15,0 4 2 - - 10 -
23.05.2018 17:00:00 18,3 16,1 11 6 SSO 1016,6 10 -
23.05.2018 16:00:00 22,0 15,0 5 3 - - 10 -
23.05.2018 15:00:00 23,0 14,0 4 2 - - 10 -
23.05.2018 14:00:00 20,7 14,4 8 4 S 1015,3 10 -
23.05.2018 13:00:00 24,0 13,0 8 4 S - 10 -
23.05.2018 12:00:00 23,0 13,0 4 2 - - 10 -
23.05.2018 11:00:00 22,4 11,4 5 3 SSE 1015,7 25 -
23.05.2018 10:00:00 19,0 13,0 0 0 N - 10 -
23.05.2018 09:00:00 18,0 14,0 2 1 - - 10 -
23.05.2018 08:00:00 16,4 12,8 0 0 N 1017,7 10 0,0
23.05.2018 07:00:00 14,0 13,0 0 0 N - 10 -
23.05.2018 06:00:00 14,0 13,0 0 0 N - 10 -
23.05.2018 05:00:00 14,1 13,8 2 1 NNO 1017,1 - -
23.05.2018 04:00:00 - - - - - - - -
23.05.2018 03:00:00 - - - - - - - -
23.05.2018 02:00:00 13,7 13,6 2 1 NNE 1017,1 - 0,0
23.05.2018 01:00:00 - - - - - - - -
23.05.2018 00:00:00 - - - - - - - -
22.05.2018 23:00:00 15,8 14,7 2 1 - 1016,6 10 -
22.05.2018 22:00:00 17,0 14,0 2 1 - - 10 -
22.05.2018 21:00:00 18,0 14,0 4 2 - - 10 -
22.05.2018 20:00:00 18,1 13,9 4 2 SSE 1014,4 10 0,0
22.05.2018 19:00:00 19,0 13,0 2 1 - - 10 -
22.05.2018 18:00:00 19,0 17,0 2 1 - - 10 -
22.05.2018 17:00:00 19,0 11,7 5 3 - 1014,2 10 -
22.05.2018 16:00:00 19,0 12,0 5 3 - - 10 -
22.05.2018 15:00:00 19,0 13,0 0 0 N - 10 -
22.05.2018 14:00:00 18,1 12,8 0 0 N 1014,8 10 0,0
22.05.2018 13:00:00 18,0 13,0 5 3 S - 10 -
22.05.2018 12:00:00 18,0 12,0 9 5 S - 10 -
22.05.2018 11:00:00 17,8 10,4 8 4 S 1014,1 10 -
22.05.2018 10:00:00 17,0 12,0 5 3 S - 10 -
22.05.2018 09:00:00 16,0 10,0 0 0 N - 10 -

tt = Temperatura
td = dewpoint
ff = velocità del vento
dd = direzione del vento
ppp = reduced air pressure
vv = visibility
rr = precipitazioni

Stazioni seguenti

WeatherPro
AMSI
MeteoEarth